Weather History for Yellowstone, WY

Change the Weather History Date:

Friday, July 4, 2014

  Actual Average Record
Temperature  
Mean Temperature 59 °F 54 °F  
Max Temperature 78 °F 70 °F 80 °F (2007)
Min Temperature 39 °F 38 °F 30 °F (2010)
Degree Days  
Heating Degree Days 6 11  
Month to date heating degree days 43 46  
Since 1 June heating degree days 629 539  
Since 1 July heating degree days 43 46  
Cooling Degree Days 0 0  
Month to date cooling degree days 0 0  
Year to date cooling degree days 0 0  
Since 1 June cooling degree days 0 0  
Growing Degree Days 8 (Base 50)    
Moisture  
Dew Point 39 °F    
Average Humidity 56    
Maximum Humidity 92    
Minimum Humidity 19    
Precipitation  
Precipitation 0.00 in 0.05 in 0.56 in (2004)
Month to date precipitation 0.01 0.18  
Year to date precipitation 17.49 11.26  
Sea Level Pressure  
Sea Level Pressure 30.12 in    
Wind  
Wind Speed 2 mph (NW)    
Max Wind Speed 15 mph    
Max Gust Speed 23 mph    
T = Trace of Precipitation, MM = Missing Value Source: NWS Daily Summary

Daily Weather History Graph

Daily Weather History Graph

Search for Another Location

Airport:

Trip Planner

Search our weather history database for the weather conditions in past years. The results will help you decide how hot, cold, wet, or windy it might be!

Date:

Astronomy

Jul. 04, 2014 Rise Set
Actual Time 5:42 AM MDT 9:09 PM MDT
Civil Twilight 5:05 AM MDT 9:45 PM MDT
Nautical Twilight 4:18 AM MDT 10:33 PM MDT
Astronomical Twilight 3:16 AM MDT 11:34 PM MDT
Moon 12:59 PM MDT (7/4) 12:17 AM MDT (7/4)
Length of Visible Light 16h 40m
Length of Day
15h 27m
Waxing Crescent, 43% of the Moon is Illuminated
Jul 4
Waxing Crescent
Jul 5
First Quarter
Jul 12
Full
Jul 18
Last Quarter
Jul 26
New

Hourly Weather History & Observations

Time (MDT) Temp. Windchill Dew Point Humidity Pressure Visibility Wind Dir Wind Speed Gust Speed Precip Events Conditions
12:56 AM 46.0 °F 44.8 °F 41.0 °F 83% 30.11 in - NW 3.5 mph - N/A   Unknown
1:56 AM 45.0 °F 43.5 °F 39.9 °F 82% 30.15 in - WNW 3.5 mph - N/A   Unknown
2:56 AM 43.0 °F - 39.0 °F 86% 30.13 in - Calm Calm - N/A   Unknown
3:56 AM 41.0 °F - 37.9 °F 89% 30.15 in - Calm Calm - N/A   Unknown
4:56 AM 39.9 °F 37.8 °F 37.0 °F 89% 30.17 in - NW 3.5 mph - N/A   Unknown
5:56 AM 39.0 °F - 37.0 °F 93% 30.19 in - Calm Calm - N/A   Unknown
6:56 AM 42.1 °F - 39.0 °F 89% 30.18 in - Calm Calm - N/A   Unknown
7:56 AM 52.0 °F - 43.0 °F 71% 30.16 in - Calm Calm - N/A   Unknown
8:56 AM 55.0 °F - 43.0 °F 64% 30.17 in - East 3.5 mph - N/A   Unknown
9:56 AM 57.0 °F - 41.0 °F 55% 30.18 in - Calm Calm - N/A   Unknown
10:56 AM 62.1 °F - 42.1 °F 48% 30.16 in - Variable 4.6 mph - N/A   Unknown
11:56 AM 64.0 °F - 44.1 °F 48% 30.16 in - Variable 4.6 mph - N/A   Unknown
12:56 PM 64.9 °F - 43.0 °F 45% 30.14 in - Calm Calm - N/A   Unknown
1:56 PM 66.9 °F - 44.1 °F 44% 30.12 in - Calm Calm - N/A   Unknown
2:56 PM 72.0 °F - 41.0 °F 33% 30.10 in - Variable 3.5 mph - N/A   Unknown
3:56 PM 73.9 °F - 33.1 °F 22% 30.07 in - Variable 6.9 mph - N/A   Unknown
4:56 PM 78.1 °F - 34.0 °F 20% 30.05 in - Variable 3.5 mph - N/A   Unknown
5:56 PM 77.0 °F - 32.0 °F 19% 30.06 in - Variable 4.6 mph - N/A   Unknown
6:56 PM 75.9 °F - 34.0 °F 22% 30.06 in - Variable 6.9 mph - N/A   Unknown
7:56 PM 71.1 °F - 37.0 °F 29% 30.04 in - Variable 3.5 mph - N/A   Unknown
8:56 PM 64.9 °F - 39.0 °F 39% 30.07 in - Calm Calm - N/A   Unknown
9:56 PM 57.9 °F - 43.0 °F 58% 30.10 in - Calm Calm - N/A   Unknown
10:56 PM 59.0 °F - 39.9 °F 49% 30.09 in - Calm Calm - N/A   Unknown
11:56 PM 52.0 °F - 42.1 °F 69% 30.11 in - Calm Calm - N/A   Unknown